Weather History for KPIL - February, 2013

Change the Weather History Date:

Tuesday, February 19, 2013

  Actual Average Record
Temperature  
Mean Temperature 66 °F -  
Max Temperature 73 °F - - ()
Min Temperature 59 °F - - ()
Cooling Degree Days 1    
Growing Degree Days 16 (Base 50)    
Moisture  
Dew Point 61 °F    
Average Humidity 82    
Maximum Humidity 94    
Minimum Humidity 64    
Precipitation  
Precipitation 0.00 in - - ()
Sea Level Pressure  
Sea Level Pressure 30.06 in    
Wind  
Wind Speed 7 mph (East)    
Max Wind Speed 21 mph    
Max Gust Speed 26 mph    
Visibility 5 miles    
Events Fog    
T = Trace of Precipitation, MM = Missing Value Source: NWS Daily Summary

Daily Weather History Graph

Daily Weather History Graph

Search for Another Location

Airport or City:

Trip Planner

Search our weather history database for the weather conditions in past years. The results will help you decide how hot, cold, wet, or windy it might be!

Date:

Astronomy

Feb. 19, 2013 Rise Set
Actual Time 7:01 AM CST 6:25 PM CST
Civil Twilight 6:38 AM CST 6:48 PM CST
Nautical Twilight 6:11 AM CST 7:15 PM CST
Astronomical Twilight 5:44 AM CST 7:42 PM CST
Moon 1:14 PM CST (2/19) 2:17 AM CST (2/19)
Length of Visible Light 12h 10m
Length of Day
11h 23m
Waxing Gibbous, 67% of the Moon is Illuminated
Feb 19
Waxing Gibbous
Feb 25
Full
Mar 4
Last Quarter
Mar 11
New
Mar 19
First Quarter

Hourly Weather History & Observations

Time (CST) Temp. Dew Point Humidity Pressure Visibility Wind Dir Wind Speed Gust Speed Precip Events Conditions
12:53 AM 64.0 °F 60.1 °F 87% 30.00 in 8.0 mi SSE 3.5 mph - N/A   Clear
1:53 AM 64.0 °F 60.1 °F 87% 30.00 in 7.0 mi Calm Calm - N/A   Clear
2:53 AM 62.1 °F 59.0 °F 90% 30.01 in 7.0 mi South 3.5 mph - N/A   Clear
3:53 AM 60.1 °F 57.0 °F 90% 30.02 in 2.5 mi Calm Calm - N/A   Clear
4:01 AM 60.8 °F 57.2 °F 88% 30.02 in 1.0 mi Calm Calm - N/A   Mist
4:08 AM 59.0 °F 55.4 °F 88% 30.02 in 0.5 mi Calm Calm - N/A Fog Fog
4:40 AM 60.8 °F 57.2 °F 88% 30.03 in 1.2 mi Calm Calm - N/A   Mostly Cloudy
4:53 AM 60.1 °F 57.0 °F 90% 30.03 in 1.2 mi Calm Calm - N/A   Overcast
5:05 AM 59.0 °F 55.4 °F 88% 30.03 in 3.0 mi ESE 3.5 mph - N/A   Overcast
5:15 AM 60.8 °F 57.2 °F 88% 30.04 in 1.8 mi ESE 3.5 mph - N/A   Overcast
5:24 AM 60.8 °F 55.4 °F 82% 30.03 in 0.5 mi ESE 4.6 mph - N/A Fog Fog
5:53 AM 62.1 °F 59.0 °F 90% 30.04 in 1.2 mi ESE 4.6 mph - N/A   Mostly Cloudy
6:08 AM 60.8 °F 59.0 °F 94% 30.05 in 0.8 mi Calm Calm - N/A   Mist
6:39 AM 62.6 °F 59.0 °F 88% 30.06 in 0.5 mi East 4.6 mph - N/A Fog Fog
6:53 AM 62.1 °F 59.0 °F 90% 30.06 in 0.5 mi ENE 4.6 mph - N/A Fog Fog
6:56 AM 62.6 °F 59.0 °F 88% 30.06 in 0.2 mi ENE 4.6 mph - N/A Fog Fog
7:48 AM 64.4 °F 62.6 °F 94% 30.09 in 0.5 mi NE 6.9 mph - N/A Fog Fog
7:53 AM 64.9 °F 62.1 °F 90% 30.10 in 1.0 mi North 9.2 mph - N/A   Mist
7:59 AM 66.2 °F 62.6 °F 88% 30.10 in 2.0 mi NE 9.2 mph 18.4 mph N/A   Mostly Cloudy
8:05 AM 66.2 °F 64.4 °F 94% 30.10 in 3.0 mi NNE 8.1 mph - N/A   Mostly Cloudy
8:20 AM 68.0 °F 64.4 °F 88% 30.11 in 4.0 mi NNE 6.9 mph - N/A   Overcast
8:50 AM 68.0 °F 64.4 °F 88% 30.13 in 5.0 mi NE 12.7 mph - N/A   Overcast
8:53 AM 68.0 °F 64.0 °F 87% 30.13 in 6.0 mi NE 13.8 mph - N/A   Overcast
9:53 AM 70.0 °F 62.1 °F 76% 30.14 in 7.0 mi ENE 13.8 mph 21.9 mph N/A   Overcast
10:53 AM 70.0 °F 61.0 °F 73% 30.16 in 7.0 mi ENE 17.3 mph 23.0 mph N/A   Overcast
12:53 PM 73.9 °F 61.0 °F 64% 30.13 in 7.0 mi ENE 20.7 mph 26.5 mph N/A   Mostly Cloudy
1:08 PM 73.4 °F 60.8 °F 65% 30.12 in 7.0 mi ENE 19.6 mph - N/A   Scattered Clouds
1:53 PM 73.0 °F 60.1 °F 64% 30.10 in 7.0 mi ENE 20.7 mph 25.3 mph N/A   Partly Cloudy
2:31 PM 73.4 °F 60.8 °F 65% 30.08 in 7.0 mi ENE 20.7 mph 25.3 mph N/A   Mostly Cloudy
2:53 PM 72.0 °F 61.0 °F 68% 30.07 in 7.0 mi ENE 18.4 mph 24.2 mph N/A   Overcast
3:25 PM 71.6 °F 60.8 °F 69% 30.07 in 7.0 mi East 18.4 mph 25.3 mph N/A   Overcast
3:53 PM 72.0 °F 61.0 °F 68% 30.06 in 7.0 mi East 19.6 mph 26.5 mph N/A   Mostly Cloudy
4:53 PM 70.0 °F 61.0 °F 73% 30.05 in 8.0 mi East 16.1 mph 23.0 mph N/A   Clear
6:53 PM 69.1 °F 62.1 °F 78% 30.03 in 8.0 mi East 18.4 mph 25.3 mph N/A   Mostly Cloudy
7:53 PM 68.0 °F 62.1 °F 81% 30.05 in 8.0 mi East 16.1 mph - N/A   Partly Cloudy
8:16 PM 68.0 °F 62.6 °F 83% 30.05 in 8.0 mi East 15.0 mph - N/A   Mostly Cloudy
8:53 PM 68.0 °F 63.0 °F 84% 30.05 in 8.0 mi East 16.1 mph - N/A   Scattered Clouds
9:40 PM 69.8 °F 62.6 °F 78% 30.07 in 8.0 mi East 13.8 mph - N/A   Mostly Cloudy
9:53 PM 69.1 °F 63.0 °F 81% 30.07 in 8.0 mi East 13.8 mph - N/A   Overcast
10:53 PM 69.1 °F 63.0 °F 81% 30.04 in 8.0 mi ESE 13.8 mph - N/A   Scattered Clouds
11:53 PM 69.1 °F 64.0 °F 84% 30.01 in 8.0 mi East 12.7 mph - N/A   Mostly Cloudy